Weather History for Rogers, AR

Change the Weather History Date:

Saturday, June 7, 2014

  Actual Average Record
Temperature  
Mean Temperature 75 °F -  
Max Temperature 81 °F 77 °F 91 °F (2011)
Min Temperature 69 °F 60 °F 48 °F (1998)
Cooling Degree Days 10    
Growing Degree Days 25 (Base 50)    
Moisture  
Dew Point 66 °F    
Average Humidity 78    
Maximum Humidity 90    
Minimum Humidity 60    
Precipitation  
Precipitation 0.00 in - - ()
Sea Level Pressure  
Sea Level Pressure 29.89 in    
Wind  
Wind Speed 10 mph (SW)    
Max Wind Speed 18 mph    
Max Gust Speed 24 mph    
Visibility 10 miles    
Events Rain , Thunderstorm    
Averages and records for this station are not official NWS values.
T = Trace of Precipitation, MM = Missing Value Source: NWS Daily Summary

Daily Weather History Graph

Daily Weather History Graph

Search for Another Location

Airport:

Trip Planner

Search our weather history database for the weather conditions in past years. The results will help you decide how hot, cold, wet, or windy it might be!

Date:

Astronomy

Jun. 07, 2014 Rise Set
Actual Time 5:58 AM CDT 8:32 PM CDT
Civil Twilight 5:28 AM CDT 9:02 PM CDT
Nautical Twilight 4:50 AM CDT 9:40 PM CDT
Astronomical Twilight 4:09 AM CDT 10:21 PM CDT
Moon 2:59 PM CDT (6/7) 2:10 AM CDT (6/7)
Length of Visible Light 15h 34m
Length of Day
14h 33m
Waxing Gibbous, 68% of the Moon is Illuminated
Jun 7
Waxing Gibbous
Jun 12
Full
Jun 19
Last Quarter
Jun 27
New
Jul 5
First Quarter

Hourly Weather History & Observations

Time (CDT) Temp. Heat Index Dew Point Humidity Pressure Visibility Wind Dir Wind Speed Gust Speed Precip Events Conditions
1:57 AM 70.0 °F - 66.9 °F 90% 29.94 in 10.0 mi SE 8.1 mph - N/A   Overcast
2:57 AM 70.0 °F - 66.0 °F 87% 29.91 in 10.0 mi SE 10.4 mph - N/A   Clear
3:57 AM 70.0 °F - 66.0 °F 87% 29.88 in 10.0 mi SE 9.2 mph - N/A   Mostly Cloudy
4:57 AM 70.0 °F - 64.9 °F 84% 29.86 in 10.0 mi SSE 9.2 mph - N/A   Clear
5:28 AM 69.8 °F - 64.4 °F 83% 29.90 in 10.0 mi SSE 9.2 mph - N/A Thunderstorm Scattered Clouds
5:42 AM 69.8 °F - 64.4 °F 83% 29.90 in 10.0 mi South 4.6 mph - 0.00 in Rain Light Rain
5:47 AM 69.8 °F - 64.4 °F 83% 29.85 in 10.0 mi SE 11.5 mph - 0.00 in Rain , Thunderstorm Light Rain
5:57 AM 69.1 °F - 64.9 °F 87% 29.80 in 10.0 mi SE 15.0 mph 20.7 mph 0.00 in Rain , Thunderstorm Light Rain
6:01 AM 69.8 °F - 64.4 °F 83% 29.83 in 10.0 mi SE 13.8 mph 20.7 mph 0.00 in Rain Light Rain
6:57 AM 70.0 °F - 66.0 °F 87% 29.86 in 6.0 mi SSW 12.7 mph - 0.00 in   Clear
7:57 AM 71.1 °F - 66.0 °F 84% 29.87 in 10.0 mi South 17.3 mph - N/A   Scattered Clouds
8:20 AM 73.4 °F - 66.2 °F 78% 29.92 in 10.0 mi South 18.4 mph - N/A   Mostly Cloudy
8:41 AM 73.4 °F - 68.0 °F 83% 29.91 in 10.0 mi South 13.8 mph 20.7 mph N/A   Mostly Cloudy
8:57 AM 73.9 °F - 68.0 °F 82% 29.88 in 10.0 mi South 12.7 mph 23.0 mph N/A   Overcast
9:39 AM 73.4 °F - 69.8 °F 88% 29.92 in 10.0 mi SW 11.5 mph - 0.00 in Rain Light Rain
9:57 AM 75.9 °F - 69.1 °F 79% 29.88 in 10.0 mi WSW 16.1 mph 21.9 mph 0.00 in   Overcast
10:57 AM 72.0 °F - 68.0 °F 87% 29.90 in 10.0 mi West 11.5 mph - 0.00 in   Overcast
11:08 AM 71.6 °F - 68.0 °F 88% 29.94 in 10.0 mi West 12.7 mph - N/A   Overcast
11:57 AM 70.0 °F - 66.0 °F 87% 29.91 in 7.0 mi West 9.2 mph - 0.00 in Rain Light Rain
12:59 PM 73.0 °F - 66.0 °F 79% 29.90 in 10.0 mi WSW 9.2 mph 18.4 mph 0.00 in   Overcast
1:35 PM 77.0 °F - 66.2 °F 69% 29.93 in 10.0 mi SW 11.5 mph - N/A   Mostly Cloudy
1:57 PM 78.1 °F - 66.9 °F 68% 29.88 in 10.0 mi SW 11.5 mph - N/A   Clear
2:57 PM 80.6 °F 83.2 °F 68.0 °F 65% 29.91 in 10.0 mi WSW 9.2 mph - N/A   Mostly Cloudy
2:59 PM 80.1 °F 82.9 °F 69.1 °F 69% 29.87 in 10.0 mi WSW 9.2 mph 16.1 mph N/A   Mostly Cloudy
3:38 PM 80.6 °F 83.2 °F 68.0 °F 65% 29.90 in 10.0 mi West 13.8 mph - N/A   Overcast
3:57 PM 81.0 °F 83.0 °F 66.0 °F 60% 29.86 in 10.0 mi West 16.1 mph 21.9 mph N/A   Mostly Cloudy
4:57 PM 79.0 °F - 66.0 °F 64% 29.89 in 10.0 mi WNW 13.8 mph 24.2 mph N/A   Scattered Clouds
5:57 PM 80.1 °F 81.9 °F 64.9 °F 60% 29.88 in 10.0 mi WNW 9.2 mph - N/A   Partly Cloudy
6:57 PM 77.0 °F - 64.9 °F 66% 29.88 in 10.0 mi West 5.8 mph - N/A   Clear
7:57 PM 75.0 °F - 64.9 °F 71% 29.90 in 10.0 mi West 4.6 mph - N/A   Clear
8:57 PM 72.0 °F - 64.0 °F 76% 29.91 in 10.0 mi West 3.5 mph - N/A   Clear
9:57 PM 70.0 °F - 64.0 °F 81% 29.93 in 10.0 mi NW 4.6 mph - N/A   Clear
10:57 PM 71.1 °F - 64.0 °F 78% 29.94 in 10.0 mi NNW 3.5 mph - N/A   Clear
11:57 PM 69.1 °F - 63.0 °F 81% 29.95 in 10.0 mi NNE 4.6 mph - N/A   Clear